• MPC Preparation (Info)

  • MPEC 2005-G76 : 2005 GY110

    The following Minor Planet Electronic Circular may be linked-to from your own Web pages, but must not otherwise be redistributed electronically.

    A form allowing access to any MPEC is at the bottom of this page.


    Read MPEC 2005-G75 Read MPEC 2005-G77


    M.P.E.C. 2005-G76                                Issued 2005 Apr. 12, 11:28 UT
    
         The Minor Planet Electronic Circulars contain information on unusual
             minor planets and routine data on comets.  They are published
       on behalf of Commission 20 of the International Astronomical Union by the
              Minor Planet Center, Smithsonian Astrophysical Observatory,
                              Cambridge, MA 02138, U.S.A.
    
                      Supported in part by the Brinson Foundation
                 Prepared using the Tamkin Foundation Computer Network
    
                                  MPC@CFA.HARVARD.EDU
              URL http://cfa-www.harvard.edu/iau/mpc.html  ISSN 1523-6714
    
                                      2005 GY110
    
    Observations:
         K05GB0Y* C2005 04 10.39123 05 17 07.02 -14 57 41.7          18.9 R EG076E12
         K05GB0Y  C2005 04 10.39885 05 17 11.90 -14 58 11.4          18.8 R EG076E12
         K05GB0Y  C2005 04 10.40648 05 17 16.76 -14 58 41.1          18.6 R EG076E12
         K05GB0Y  C2005 04 10.41412 05 17 21.69 -14 59 11.2          18.3 R EG076E12
         K05GB0Y  C2005 04 10.43969 05 17 38.05 -15 00 50.9          18.7 R EG076E12
         K05GB0Y  C2005 04 10.44056 05 17 38.53 -15 00 54.0          19.1 R EG076E12
         K05GB0Y  C2005 04 10.44143 05 17 39.12 -15 00 57.5          18.7 R EG076E12
         K05GB0Y  C2005 04 10.44230 05 17 39.73 -15 01 00.5                 EG076E12
         K05GB0Y  C2005 04 10.44617 05 17 42.26 -15 01 15.8                 EG076E12
         K05GB0Y 1C2005 04 12.37391 05 38 57.23 -17 05 33.7          18.5 R EG076413
         K05GB0Y 1C2005 04 12.38245 05 39 02.93 -17 06 05.7          18.5 R EG076413
         K05GB0Y  C2005 04 12.42060 05 39 28.46 -17 08 21.0          18.2 R EG076474
         K05GB0Y  C2005 04 12.42164 05 39 29.20 -17 08 24.5          18.1 R EG076474
         K05GB0Y  C2005 04 12.42269 05 39 29.82 -17 08 28.7          18.2 R EG076474
         K05GB0Y  C2005 04 12.42373 05 39 30.54 -17 08 32.4          17.9 R EG076474
         K05GB0Y  C2005 04 12.42477 05 39 31.23 -17 08 36.3          18.6 R EG076474
         K05GB0Y  C2005 04 12.42859 05 39 33.85 -17 08 51.1          18.0 R EG076474
         K05GB0Y  C2005 04 12.42963 05 39 34.55 -17 08 54.7          18.1 R EG076474
         K05GB0Y  C2005 04 12.43079 05 39 35.34 -17 08 59.2          18.1 R EG076474
         K05GB0Y  C2005 04 12.43194 05 39 36.03 -17 09 03.1          18.4 R EG076474
         K05GB0Y  C2005 04 12.43368 05 39 37.28 -17 09 09.9          17.9 R EG076474
    
    Observer details:
    413 Siding Spring.  Observers D. J. Frew, R. H. McNaught.  Measurer
        R. H. McNaught.  1.0-m f/8 reflector + CCD.
    474 Mount John Observatory, Lake Tekapo.  Observer A. C. Gilmore.  Measurer
        P. M. Kilmartin.  1.0-m f/7.7 reflector + CCD.
    E12 Siding Spring Survey.  Observer R. H. McNaught.  Measurers E. C. Beshore,
        C. M. Casey, E. J. Christensen, G. J. Garradd, A. D. Grauer, R. E. Hill,
        S. M. Larson, R. H. McNaught.  0.5-m Uppsala Schmidt + CCD.
    
    Orbital elements:
    2005 GY110                                                           PHA 0.043
    Epoch 2005 Mar. 31.0 TT = JDT 2453460.5                 MPC
    M  13.14752              (2000.0)            P               Q
    n   0.42777665     Peri.  168.25827     -0.24086354     -0.95142219
    a   1.7444479      Node   295.43191     +0.87239713     -0.12563858
    e   0.6662655      Incl.   12.26076     +0.42533282     -0.28108854
    P   2.30           H   18.2           G   0.15
    From 21 observations 2005 Apr. 10-12.
    
    Ephemeris:
    2005 GY110               a,e,i = 1.74, 0.67, 12                  q = 0.5822
    Date    TT    R. A. (2000) Decl.     Delta      r     Elong.  Phase     V
    2005 04 10    05 12.95   -14 32.1    0.302    0.907    63.2    99.5    19.0
    2005 04 20    07 08.37   -23 46.0    0.300    1.023    85.0    78.0    18.4
    2005 04 30    08 54.40   -27 06.6    0.358    1.138   102.2    59.9    18.4
    2005 05 10    10 09.38   -26 36.9    0.456    1.250   111.2    48.9    18.8
    2005 05 20    11 00.14   -25 12.7    0.579    1.357   114.3    42.8    19.3
    2005 05 30    11 36.80   -23 56.8    0.719    1.460   113.8    39.5    19.9
    2005 06 09    12 05.56   -23 02.5    0.871    1.558   111.1    37.4    20.4
    2005 06 19    12 29.78   -22 29.8    1.034    1.652   107.3    36.0    20.8
    2005 06 29    12 51.23   -22 15.1    1.206    1.741   102.8    34.7    21.2
    2005 07 09    13 10.99   -22 14.8    1.384    1.826    97.9    33.5    21.6
    2005 07 19    13 29.69   -22 25.6    1.566    1.906    92.7    32.2    21.9
    
    Timothy B. Spahr             (C) Copyright 2005 MPC           M.P.E.C. 2005-G76
    

    Read MPEC 2005-G75 Read MPEC 2005-G77


    MPEC number:

    Enter an MPEC number in one of the following forms:

    • 1997-B01 (the full form)
    • J97B01 (the packed version of the full form)
    • B01 (the abbreviated form)